Year,Month,Day,Hour,Minute,Value (Times are PST for temperature in C)
2009,05,17,00,00,11.80
2009,05,17,00,01,11.80
2009,05,17,00,02,11.80
2009,05,17,00,03,11.80
2009,05,17,00,04,11.80
2009,05,17,00,05,11.80
2009,05,17,00,06,11.80
2009,05,17,00,07,11.80
2009,05,17,00,08,11.80
2009,05,17,00,09,11.80
2009,05,17,00,10,11.80
2009,05,17,00,11,11.80
2009,05,17,00,12,11.80
2009,05,17,00,13,11.80
2009,05,17,00,14,11.80
2009,05,17,00,15,11.80
2009,05,17,00,16,11.80
2009,05,17,00,17,11.80
2009,05,17,00,18,11.80
2009,05,17,00,19,11.80
2009,05,17,00,20,11.80
2009,05,17,00,21,11.80
2009,05,17,00,22,11.70
2009,05,17,00,23,11.70
2009,05,17,00,24,11.70
2009,05,17,00,25,11.70
2009,05,17,00,26,11.70
2009,05,17,00,27,11.60
2009,05,17,00,28,11.60
2009,05,17,00,29,11.60
2009,05,17,00,30,11.60
2009,05,17,00,31,11.60
2009,05,17,00,32,11.60
2009,05,17,00,33,11.60
2009,05,17,00,34,11.60
2009,05,17,00,35,11.60
2009,05,17,00,36,11.50
2009,05,17,00,37,11.40
2009,05,17,00,38,11.40
2009,05,17,00,39,11.40
2009,05,17,00,40,11.40
2009,05,17,00,41,11.40
2009,05,17,00,42,11.40
2009,05,17,00,43,11.40
2009,05,17,00,44,11.40
2009,05,17,00,45,11.40
2009,05,17,00,46,11.40
2009,05,17,00,47,11.40
2009,05,17,00,48,11.30
2009,05,17,00,49,11.30
2009,05,17,00,50,11.30
2009,05,17,00,51,11.30
2009,05,17,00,52,11.20
2009,05,17,00,53,11.20
2009,05,17,00,54,11.20
2009,05,17,00,55,11.20
2009,05,17,00,56,11.20
2009,05,17,00,57,11.20
2009,05,17,00,58,11.20
2009,05,17,00,59,11.20
2009,05,17,01,00,11.20
2009,05,17,01,01,11.10
2009,05,17,01,02,11.10
2009,05,17,01,03,11.10
2009,05,17,01,04,11.10
2009,05,17,01,05,11.10
2009,05,17,01,06,11.10
2009,05,17,01,07,11.10
2009,05,17,01,08,11.10
2009,05,17,01,09,11.10
2009,05,17,01,10,11.10
2009,05,17,01,11,11.10
2009,05,17,01,12,11.10
2009,05,17,01,13,11.10
2009,05,17,01,14,11.10
2009,05,17,01,15,11.10
2009,05,17,01,16,11.10
2009,05,17,01,17,11.10
2009,05,17,01,18,11.10
2009,05,17,01,19,11.10
2009,05,17,01,20,11.10
2009,05,17,01,21,11.10
2009,05,17,01,22,11.10
2009,05,17,01,23,11.10
2009,05,17,01,24,11.00
2009,05,17,01,25,10.90
2009,05,17,01,26,10.90
2009,05,17,01,27,10.90
2009,05,17,01,28,10.90
2009,05,17,01,29,10.90
2009,05,17,01,30,10.90
2009,05,17,01,31,10.90
2009,05,17,01,32,10.90
2009,05,17,01,33,10.80
2009,05,17,01,34,10.80
2009,05,17,01,35,10.80
2009,05,17,01,36,10.70
2009,05,17,01,37,10.70
2009,05,17,01,38,10.70
2009,05,17,01,39,10.60
2009,05,17,01,40,10.60
2009,05,17,01,41,10.60
2009,05,17,01,42,10.60
2009,05,17,01,43,10.60
2009,05,17,01,44,10.60
2009,05,17,01,45,10.60
2009,05,17,01,46,10.40
2009,05,17,01,47,10.40
2009,05,17,01,48,10.40
2009,05,17,01,49,10.40
2009,05,17,01,50,10.40
2009,05,17,01,51,10.40
2009,05,17,01,52,10.40
2009,05,17,01,53,10.40
2009,05,17,01,54,10.40
2009,05,17,01,55,10.40
2009,05,17,01,56,10.40
2009,05,17,01,57,10.40
2009,05,17,01,58,10.40
2009,05,17,01,59,10.40
2009,05,17,02,00,10.40
2009,05,17,02,01,10.60
2009,05,17,02,02,10.60
2009,05,17,02,03,10.60
2009,05,17,02,04,10.70
2009,05,17,02,05,10.80
2009,05,17,02,06,10.90
2009,05,17,02,07,11.00
2009,05,17,02,08,11.10
2009,05,17,02,09,11.10
2009,05,17,02,10,11.20
2009,05,17,02,11,11.20
2009,05,17,02,12,11.20
2009,05,17,02,13,11.30
2009,05,17,02,14,11.30
2009,05,17,02,15,11.30
2009,05,17,02,16,11.30
2009,05,17,02,17,11.20
2009,05,17,02,18,11.20
2009,05,17,02,19,11.20
2009,05,17,02,20,11.20
2009,05,17,02,21,11.20
2009,05,17,02,22,11.20
2009,05,17,02,23,11.10
2009,05,17,02,24,11.10
2009,05,17,02,25,11.10
2009,05,17,02,26,11.10
2009,05,17,02,27,11.10
2009,05,17,02,28,11.00
2009,05,17,02,29,10.90
2009,05,17,02,30,10.90
2009,05,17,02,31,10.90
2009,05,17,02,32,10.90
2009,05,17,02,33,10.90
2009,05,17,02,34,10.90
2009,05,17,02,35,10.90
2009,05,17,02,36,10.90
2009,05,17,02,37,10.90
2009,05,17,02,38,10.90
2009,05,17,02,39,10.90
2009,05,17,02,40,10.90
2009,05,17,02,41,10.90
2009,05,17,02,42,10.90
2009,05,17,02,43,10.90
2009,05,17,02,44,10.90
2009,05,17,02,45,11.00
2009,05,17,02,46,11.10
2009,05,17,02,47,11.10
2009,05,17,02,48,11.10
2009,05,17,02,49,11.10
2009,05,17,02,50,11.10
2009,05,17,02,51,11.00
2009,05,17,02,52,10.90
2009,05,17,02,53,10.90
2009,05,17,02,54,10.90
2009,05,17,02,55,10.90
2009,05,17,02,56,10.90
2009,05,17,02,57,10.90
2009,05,17,02,58,10.90
2009,05,17,02,59,10.90
2009,05,17,03,00,10.90
2009,05,17,03,01,10.90
2009,05,17,03,02,10.90
2009,05,17,03,03,10.80
2009,05,17,03,04,10.80
2009,05,17,03,05,10.80
2009,05,17,03,06,10.80
2009,05,17,03,07,10.80
2009,05,17,03,08,10.80
2009,05,17,03,09,10.80
2009,05,17,03,10,10.80
2009,05,17,03,11,10.80
2009,05,17,03,12,10.80
2009,05,17,03,13,10.80
2009,05,17,03,14,10.80
2009,05,17,03,15,10.90
2009,05,17,03,16,10.90
2009,05,17,03,17,10.90
2009,05,17,03,18,10.90
2009,05,17,03,19,10.90
2009,05,17,03,20,10.90
2009,05,17,03,21,10.90
2009,05,17,03,22,10.90
2009,05,17,03,23,10.90
2009,05,17,03,24,10.90
2009,05,17,03,25,10.90
2009,05,17,03,26,10.90
2009,05,17,03,27,10.90
2009,05,17,03,28,10.90
2009,05,17,03,29,10.90
2009,05,17,03,30,10.90
2009,05,17,03,31,10.90
2009,05,17,03,32,11.00
2009,05,17,03,33,11.10
2009,05,17,03,34,11.10
2009,05,17,03,35,11.10
2009,05,17,03,36,11.10
2009,05,17,03,37,11.10
2009,05,17,03,38,11.10
2009,05,17,03,39,11.10
2009,05,17,03,40,11.10
2009,05,17,03,41,11.10
2009,05,17,03,42,11.10
2009,05,17,03,43,11.10
2009,05,17,03,44,11.10
2009,05,17,03,45,11.10
2009,05,17,03,46,11.10
2009,05,17,03,47,11.10
2009,05,17,03,48,11.10
2009,05,17,03,49,11.20
2009,05,17,03,50,11.20
2009,05,17,03,51,11.20
2009,05,17,03,52,11.20
2009,05,17,03,53,11.20
2009,05,17,03,54,11.20
2009,05,17,03,55,11.20
2009,05,17,03,56,11.20
2009,05,17,03,57,11.20
2009,05,17,03,58,11.20
2009,05,17,03,59,11.20
2009,05,17,04,00,11.20
2009,05,17,04,01,11.30
2009,05,17,04,02,11.30
2009,05,17,04,03,11.30
2009,05,17,04,04,11.30
2009,05,17,04,05,11.30
2009,05,17,04,06,11.30
2009,05,17,04,07,11.30
2009,05,17,04,08,11.30
2009,05,17,04,09,11.40
2009,05,17,04,10,11.40
2009,05,17,04,11,11.40
2009,05,17,04,12,11.40
2009,05,17,04,13,11.60
2009,05,17,04,14,11.60
2009,05,17,04,15,11.60
2009,05,17,04,16,11.60
2009,05,17,04,17,11.70
2009,05,17,04,18,11.70
2009,05,17,04,19,11.70
2009,05,17,04,20,11.80
2009,05,17,04,21,11.80
2009,05,17,04,22,11.80
2009,05,17,04,23,11.80
2009,05,17,04,24,11.80
2009,05,17,04,25,11.80
2009,05,17,04,26,11.80
2009,05,17,04,27,11.80
2009,05,17,04,28,11.90
2009,05,17,04,29,11.90
2009,05,17,04,30,11.90
2009,05,17,04,31,11.90
2009,05,17,04,32,12.00
2009,05,17,04,33,12.00
2009,05,17,04,34,12.00
2009,05,17,04,35,12.00
2009,05,17,04,36,12.10
2009,05,17,04,37,12.10
2009,05,17,04,38,12.10
2009,05,17,04,39,12.10
2009,05,17,04,40,12.10
2009,05,17,04,41,12.10
2009,05,17,04,42,12.10
2009,05,17,04,43,12.00
2009,05,17,04,44,12.00
2009,05,17,04,45,11.90
2009,05,17,04,46,11.90
2009,05,17,04,47,11.80
2009,05,17,04,48,11.80
2009,05,17,04,49,11.70
2009,05,17,04,50,11.70
2009,05,17,04,51,11.60
2009,05,17,04,52,11.60
2009,05,17,04,53,11.60
2009,05,17,04,54,11.40
2009,05,17,04,55,11.40
2009,05,17,04,56,11.40
2009,05,17,04,57,11.40
2009,05,17,04,58,11.40
2009,05,17,04,59,11.30
2009,05,17,05,00,11.30
2009,05,17,05,01,11.30
2009,05,17,05,02,11.30
2009,05,17,05,03,11.30
2009,05,17,05,04,11.20
2009,05,17,05,05,11.20
2009,05,17,05,06,11.20
2009,05,17,05,07,11.10
2009,05,17,05,08,11.10
2009,05,17,05,09,11.10
2009,05,17,05,10,11.10
2009,05,17,05,11,11.10
2009,05,17,05,12,11.10
2009,05,17,05,13,11.10
2009,05,17,05,14,11.10
2009,05,17,05,15,11.10
2009,05,17,05,16,11.20
2009,05,17,05,17,11.20
2009,05,17,05,18,11.40
2009,05,17,05,19,11.50
2009,05,17,05,20,11.60
2009,05,17,05,21,11.70
2009,05,17,05,22,11.80
2009,05,17,05,23,11.90
2009,05,17,05,24,12.10
2009,05,17,05,25,12.20
2009,05,17,05,26,12.30
2009,05,17,05,27,12.40
2009,05,17,05,28,12.50
2009,05,17,05,29,12.60
2009,05,17,05,30,12.60
2009,05,17,05,31,12.70
2009,05,17,05,32,12.80
2009,05,17,05,33,12.80
2009,05,17,05,34,12.80
2009,05,17,05,35,12.90
2009,05,17,05,36,12.90
2009,05,17,05,37,13.00
2009,05,17,05,38,13.00
2009,05,17,05,39,13.10
2009,05,17,05,40,13.20
2009,05,17,05,41,13.20
2009,05,17,05,42,13.30
2009,05,17,05,43,13.30
2009,05,17,05,44,13.30
2009,05,17,05,45,13.40
2009,05,17,05,46,13.40
2009,05,17,05,47,13.50
2009,05,17,05,48,13.50
2009,05,17,05,49,13.50
2009,05,17,05,50,13.50
2009,05,17,05,51,13.60
2009,05,17,05,52,13.60
2009,05,17,05,53,13.60
2009,05,17,05,54,13.60
2009,05,17,05,55,13.60
2009,05,17,05,56,13.50
2009,05,17,05,57,13.50
2009,05,17,05,58,13.50
2009,05,17,05,59,13.50
2009,05,17,06,00,13.40
2009,05,17,06,01,13.40
2009,05,17,06,02,13.40
2009,05,17,06,03,13.40
2009,05,17,06,04,13.40
2009,05,17,06,05,13.30
2009,05,17,06,06,13.30
2009,05,17,06,07,13.30
2009,05,17,06,08,13.30
2009,05,17,06,09,13.30
2009,05,17,06,10,13.30
2009,05,17,06,11,13.30
2009,05,17,06,12,13.30
2009,05,17,06,13,13.30
2009,05,17,06,14,13.30
2009,05,17,06,15,13.40
2009,05,17,06,16,13.40
2009,05,17,06,17,13.40
2009,05,17,06,18,13.40
2009,05,17,06,19,13.40
2009,05,17,06,20,13.40
2009,05,17,06,21,13.40
2009,05,17,06,22,13.30
2009,05,17,06,23,13.30
2009,05,17,06,24,13.30
2009,05,17,06,25,13.30
2009,05,17,06,26,13.30
2009,05,17,06,27,13.30
2009,05,17,06,28,13.30
2009,05,17,06,29,13.30
2009,05,17,06,30,13.30
2009,05,17,06,31,13.30
2009,05,17,06,32,13.30
2009,05,17,06,33,13.30
2009,05,17,06,34,13.30
2009,05,17,06,35,13.30
2009,05,17,06,36,13.30
2009,05,17,06,37,13.30
2009,05,17,06,38,13.30
2009,05,17,06,39,13.30
2009,05,17,06,40,13.30
2009,05,17,06,41,13.30
2009,05,17,06,42,13.30
2009,05,17,06,43,13.30
2009,05,17,06,44,13.30
2009,05,17,06,45,13.30
2009,05,17,06,46,13.30
2009,05,17,06,47,13.30
2009,05,17,06,48,13.30
2009,05,17,06,49,13.40
2009,05,17,06,50,13.40
2009,05,17,06,51,13.40
2009,05,17,06,52,13.50
2009,05,17,06,53,13.50
2009,05,17,06,54,13.50
2009,05,17,06,55,13.60
2009,05,17,06,56,13.60
2009,05,17,06,57,13.70
2009,05,17,06,58,13.70
2009,05,17,06,59,13.70
2009,05,17,07,00,13.70
2009,05,17,07,01,13.80
2009,05,17,07,02,13.80
2009,05,17,07,03,13.90
2009,05,17,07,04,13.90
2009,05,17,07,05,13.90
2009,05,17,07,06,14.00
2009,05,17,07,07,14.00
2009,05,17,07,08,14.00
2009,05,17,07,09,14.00
2009,05,17,07,10,14.10
2009,05,17,07,11,14.10
2009,05,17,07,12,14.10
2009,05,17,07,13,14.10
2009,05,17,07,14,14.10
2009,05,17,07,15,14.10
2009,05,17,07,16,14.10
2009,05,17,07,17,14.10
2009,05,17,07,18,14.00
2009,05,17,07,19,14.00
2009,05,17,07,20,14.00
2009,05,17,07,21,14.00
2009,05,17,07,22,14.00
2009,05,17,07,23,14.00
2009,05,17,07,24,14.00
2009,05,17,07,25,14.00
2009,05,17,07,26,14.00
2009,05,17,07,27,14.10
2009,05,17,07,28,14.10
2009,05,17,07,29,14.00
2009,05,17,07,30,14.00
2009,05,17,07,31,13.90
2009,05,17,07,32,13.90
2009,05,17,07,33,13.90
2009,05,17,07,34,13.80
2009,05,17,07,35,13.80
2009,05,17,07,36,13.90
2009,05,17,07,37,13.90
2009,05,17,07,38,14.00
2009,05,17,07,39,14.00
2009,05,17,07,40,14.10
2009,05,17,07,41,14.10
2009,05,17,07,42,14.20
2009,05,17,07,43,14.30
2009,05,17,07,44,14.30
2009,05,17,07,45,14.40
2009,05,17,07,46,14.40
2009,05,17,07,47,14.40
2009,05,17,07,48,14.30
2009,05,17,07,49,14.10
2009,05,17,07,50,14.00
2009,05,17,07,51,14.00
2009,05,17,07,52,13.90
2009,05,17,07,53,13.90
2009,05,17,07,54,13.90
2009,05,17,07,55,13.80
2009,05,17,07,56,13.80
2009,05,17,07,57,13.70
2009,05,17,07,58,13.70
2009,05,17,07,59,13.70
2009,05,17,08,00,13.60
2009,05,17,08,01,13.60
2009,05,17,08,02,13.60
2009,05,17,08,03,13.60
2009,05,17,08,04,13.60
2009,05,17,08,05,13.60
2009,05,17,08,06,13.50
2009,05,17,08,07,13.50
2009,05,17,08,08,13.50
2009,05,17,08,09,13.50
2009,05,17,08,10,13.50
2009,05,17,08,11,13.50
2009,05,17,08,12,13.50
2009,05,17,08,13,13.40
2009,05,17,08,14,13.30
2009,05,17,08,15,13.30
2009,05,17,08,16,13.30
2009,05,17,08,17,13.20
2009,05,17,08,18,13.10
2009,05,17,08,19,13.10
2009,05,17,08,20,13.00
2009,05,17,08,21,12.90
2009,05,17,08,22,12.90
2009,05,17,08,23,12.90
2009,05,17,08,24,12.90
2009,05,17,08,25,12.90
2009,05,17,08,26,12.90
2009,05,17,08,27,12.90
2009,05,17,08,28,12.90
2009,05,17,08,29,13.00
2009,05,17,08,30,12.90
2009,05,17,08,31,12.90
2009,05,17,08,32,12.90
2009,05,17,08,33,13.00
2009,05,17,08,34,13.10
2009,05,17,08,35,13.20
2009,05,17,08,36,13.20
2009,05,17,08,37,13.20
2009,05,17,08,38,13.20
2009,05,17,08,39,13.30
2009,05,17,08,40,13.30
2009,05,17,08,41,13.30
2009,05,17,08,42,13.30
2009,05,17,08,43,13.30
2009,05,17,08,44,13.30
2009,05,17,08,45,13.30
2009,05,17,08,46,13.20
2009,05,17,08,47,13.20
2009,05,17,08,48,13.20
2009,05,17,08,49,13.10
2009,05,17,08,50,13.00
2009,05,17,08,51,12.90
2009,05,17,08,52,12.90
2009,05,17,08,53,12.80
2009,05,17,08,54,12.80
2009,05,17,08,55,12.80
2009,05,17,08,56,12.80
2009,05,17,08,57,12.90
2009,05,17,08,58,12.90
2009,05,17,08,59,13.00
2009,05,17,09,00,13.10
2009,05,17,09,01,13.10
2009,05,17,09,02,13.30
2009,05,17,09,03,13.30
2009,05,17,09,04,13.40
2009,05,17,09,05,13.40
2009,05,17,09,06,13.50
2009,05,17,09,07,13.50
2009,05,17,09,08,13.40
2009,05,17,09,09,13.30
2009,05,17,09,10,13.30
2009,05,17,09,11,13.30
2009,05,17,09,12,13.20
2009,05,17,09,13,13.10
2009,05,17,09,14,13.10
2009,05,17,09,15,13.10
2009,05,17,09,16,13.20
2009,05,17,09,17,13.30
2009,05,17,09,18,13.30
2009,05,17,09,19,13.40
2009,05,17,09,20,13.40
2009,05,17,09,21,13.40
2009,05,17,09,22,13.50
2009,05,17,09,23,13.50
2009,05,17,09,24,13.50
2009,05,17,09,25,13.60
2009,05,17,09,26,13.70
2009,05,17,09,27,13.80
2009,05,17,09,28,13.90
2009,05,17,09,29,13.90
2009,05,17,09,30,13.90
2009,05,17,09,31,13.80
2009,05,17,09,32,13.80
2009,05,17,09,33,13.80
2009,05,17,09,34,13.80
2009,05,17,09,35,13.80
2009,05,17,09,36,13.80
2009,05,17,09,37,13.80
2009,05,17,09,38,13.90
2009,05,17,09,39,14.00
2009,05,17,09,40,14.10
2009,05,17,09,41,14.20
2009,05,17,09,42,14.20
2009,05,17,09,43,14.30
2009,05,17,09,44,14.30
2009,05,17,09,45,14.30
2009,05,17,09,46,14.30
2009,05,17,09,47,14.40
2009,05,17,09,48,14.40
2009,05,17,09,49,14.40
2009,05,17,09,50,14.50
2009,05,17,09,51,14.50
2009,05,17,09,52,14.60
2009,05,17,09,53,14.80
2009,05,17,09,54,14.90
2009,05,17,09,55,15.00
2009,05,17,09,56,15.00
2009,05,17,09,57,15.10
2009,05,17,09,58,15.10
2009,05,17,09,59,15.10
2009,05,17,10,00,15.10
2009,05,17,10,01,15.20
2009,05,17,10,02,15.20
2009,05,17,10,03,15.30
2009,05,17,10,04,15.30
2009,05,17,10,05,15.30
2009,05,17,10,06,15.40
2009,05,17,10,07,15.30
2009,05,17,10,08,15.30
2009,05,17,10,09,15.30
2009,05,17,10,10,15.30
2009,05,17,10,11,15.20
2009,05,17,10,12,15.10
2009,05,17,10,13,15.00
2009,05,17,10,14,14.90
2009,05,17,10,15,14.80
2009,05,17,10,16,14.80
2009,05,17,10,17,14.80
2009,05,17,10,18,14.80
2009,05,17,10,19,14.70
2009,05,17,10,20,14.80
2009,05,17,10,21,14.90
2009,05,17,10,22,14.90
2009,05,17,10,23,15.00
2009,05,17,10,24,15.00
2009,05,17,10,25,15.10
2009,05,17,10,26,15.20
2009,05,17,10,27,15.30
2009,05,17,10,28,15.30
2009,05,17,10,29,15.30
2009,05,17,10,30,15.20
2009,05,17,10,31,15.30
2009,05,17,10,32,15.20
2009,05,17,10,33,15.30
2009,05,17,10,34,15.30
2009,05,17,10,35,15.30
2009,05,17,10,36,15.30
2009,05,17,10,37,15.30
2009,05,17,10,38,15.20
2009,05,17,10,39,15.20
2009,05,17,10,40,15.20
2009,05,17,10,41,15.30
2009,05,17,10,42,15.30
2009,05,17,10,43,15.30
2009,05,17,10,44,15.30
2009,05,17,10,45,15.30
2009,05,17,10,46,15.40
2009,05,17,10,47,15.40
2009,05,17,10,48,15.50
2009,05,17,10,49,15.50
2009,05,17,10,50,15.40
2009,05,17,10,51,15.30
2009,05,17,10,52,15.20
2009,05,17,10,53,15.10
2009,05,17,10,54,15.10
2009,05,17,10,55,15.20
2009,05,17,10,56,15.20
2009,05,17,10,57,15.30
2009,05,17,10,58,15.30
2009,05,17,10,59,15.30
2009,05,17,11,00,15.40
2009,05,17,11,01,15.50
2009,05,17,11,02,15.70
2009,05,17,11,03,15.80
2009,05,17,11,04,15.90
2009,05,17,11,05,15.90
2009,05,17,11,06,15.90
2009,05,17,11,07,16.00
2009,05,17,11,08,16.10
2009,05,17,11,09,16.20
2009,05,17,11,10,16.20
2009,05,17,11,11,16.10
2009,05,17,11,12,16.00
2009,05,17,11,13,16.00
2009,05,17,11,14,16.10
2009,05,17,11,15,16.10
2009,05,17,11,16,16.10
2009,05,17,11,17,16.10
2009,05,17,11,18,16.10
2009,05,17,11,19,16.10
2009,05,17,11,20,16.10
2009,05,17,11,21,16.10
2009,05,17,11,22,16.10
2009,05,17,11,23,16.10
2009,05,17,11,24,16.10
2009,05,17,11,25,16.20
2009,05,17,11,26,16.20
2009,05,17,11,27,16.30
2009,05,17,11,28,16.30
2009,05,17,11,29,16.30
2009,05,17,11,30,16.30
2009,05,17,11,31,16.20
2009,05,17,11,32,16.20
2009,05,17,11,33,16.20
2009,05,17,11,34,16.10
2009,05,17,11,35,16.10
2009,05,17,11,36,16.10
2009,05,17,11,37,16.10
2009,05,17,11,38,16.20
2009,05,17,11,39,16.20
2009,05,17,11,40,16.30
2009,05,17,11,41,16.30
2009,05,17,11,42,16.40
2009,05,17,11,43,16.40
2009,05,17,11,44,16.40
2009,05,17,11,45,16.40
2009,05,17,11,46,16.50
2009,05,17,11,47,16.60
2009,05,17,11,48,16.70
2009,05,17,11,49,16.80
2009,05,17,11,50,16.90
2009,05,17,11,51,16.90
2009,05,17,11,52,16.90
2009,05,17,11,53,16.80
2009,05,17,11,54,16.90
2009,05,17,11,55,16.90
2009,05,17,11,56,16.90
2009,05,17,11,57,16.90
2009,05,17,11,58,16.90
2009,05,17,11,59,16.90
2009,05,17,12,00,16.90
2009,05,17,12,01,16.90
2009,05,17,12,02,16.80
2009,05,17,12,03,16.90
2009,05,17,12,04,16.90
2009,05,17,12,05,16.90
2009,05,17,12,06,16.90
2009,05,17,12,07,17.10
2009,05,17,12,08,17.10
2009,05,17,12,09,17.30
2009,05,17,12,10,17.10
2009,05,17,12,11,16.80
2009,05,17,12,12,16.50
2009,05,17,12,13,16.30
2009,05,17,12,14,16.30
2009,05,17,12,15,16.10
2009,05,17,12,16,15.80
2009,05,17,12,17,15.50
2009,05,17,12,18,15.40
2009,05,17,12,19,15.40
2009,05,17,12,20,15.40
2009,05,17,12,21,15.30
2009,05,17,12,22,15.20
2009,05,17,12,23,15.20
2009,05,17,12,24,15.20
2009,05,17,12,25,15.40
2009,05,17,12,26,15.50
2009,05,17,12,27,15.60
2009,05,17,12,28,15.70
2009,05,17,12,29,15.90
2009,05,17,12,30,16.10
2009,05,17,12,31,16.30
2009,05,17,12,32,16.30
2009,05,17,12,33,16.10
2009,05,17,12,34,15.90
2009,05,17,12,35,15.60
2009,05,17,12,36,15.40
2009,05,17,12,37,15.30
2009,05,17,12,38,15.20
2009,05,17,12,39,15.20
2009,05,17,12,40,15.30
2009,05,17,12,41,15.40
2009,05,17,12,42,15.40
2009,05,17,12,43,15.30
2009,05,17,12,44,15.10
2009,05,17,12,45,14.90
2009,05,17,12,46,14.90
2009,05,17,12,47,14.90
2009,05,17,12,48,15.00
2009,05,17,12,49,15.00
2009,05,17,12,50,14.90
2009,05,17,12,51,14.80
2009,05,17,12,52,14.60
2009,05,17,12,53,14.30
2009,05,17,12,54,14.20
2009,05,17,12,55,14.40
2009,05,17,12,56,14.50
2009,05,17,12,57,14.50
2009,05,17,12,58,14.60
2009,05,17,12,59,14.70
2009,05,17,13,00,14.70
2009,05,17,13,01,14.70
2009,05,17,13,02,14.70
2009,05,17,13,03,14.80
2009,05,17,13,04,15.00
2009,05,17,13,05,15.20
2009,05,17,13,06,15.40
2009,05,17,13,07,15.60
2009,05,17,13,08,15.70
2009,05,17,13,09,15.80
2009,05,17,13,10,15.80
2009,05,17,13,11,15.80
2009,05,17,13,12,15.80
2009,05,17,13,13,15.80
2009,05,17,13,14,15.80
2009,05,17,13,15,15.80
2009,05,17,13,16,15.80
2009,05,17,13,17,15.80
2009,05,17,13,18,15.80
2009,05,17,13,19,15.90
2009,05,17,13,20,15.90
2009,05,17,13,21,16.00
2009,05,17,13,22,16.00
2009,05,17,13,23,15.90
2009,05,17,13,24,15.90
2009,05,17,13,25,15.70
2009,05,17,13,26,15.50
2009,05,17,13,27,15.50
2009,05,17,13,28,15.30
2009,05,17,13,29,15.20
2009,05,17,13,30,15.40
2009,05,17,13,31,15.50
2009,05,17,13,32,15.60
2009,05,17,13,33,15.50
2009,05,17,13,34,15.40
2009,05,17,13,35,15.40
2009,05,17,13,36,15.30
2009,05,17,13,37,15.00
2009,05,17,13,38,14.80
2009,05,17,13,39,14.60
2009,05,17,13,40,14.40
2009,05,17,13,41,14.30
2009,05,17,13,42,14.40
2009,05,17,13,43,14.50
2009,05,17,13,44,14.50
2009,05,17,13,45,14.50
2009,05,17,13,46,14.60
2009,05,17,13,47,14.60
2009,05,17,13,48,14.50
2009,05,17,13,49,14.40
2009,05,17,13,50,14.40
2009,05,17,13,51,14.20
2009,05,17,13,52,14.20
2009,05,17,13,53,14.20
2009,05,17,13,54,14.10
2009,05,17,13,55,14.00
2009,05,17,13,56,13.90
2009,05,17,13,57,13.80
2009,05,17,13,58,13.80
2009,05,17,13,59,13.90
2009,05,17,14,00,13.90
2009,05,17,14,01,14.00
2009,05,17,14,02,14.20
2009,05,17,14,03,14.30
2009,05,17,14,04,14.30
2009,05,17,14,05,14.30
2009,05,17,14,06,14.40
2009,05,17,14,07,14.50
2009,05,17,14,08,14.60
2009,05,17,14,09,14.70
2009,05,17,14,10,15.00
2009,05,17,14,11,15.30
2009,05,17,14,12,15.60
2009,05,17,14,13,15.70
2009,05,17,14,14,15.80
2009,05,17,14,15,16.10
2009,05,17,14,16,16.30
2009,05,17,14,17,16.50
2009,05,17,14,18,16.70
2009,05,17,14,19,16.70
2009,05,17,14,20,16.70
2009,05,17,14,21,16.70
2009,05,17,14,22,16.70
2009,05,17,14,23,16.80
2009,05,17,14,24,16.90
2009,05,17,14,25,17.00
2009,05,17,14,26,17.00
2009,05,17,14,27,17.10
2009,05,17,14,28,17.30
2009,05,17,14,29,17.30
2009,05,17,14,30,17.30
2009,05,17,14,31,17.30
2009,05,17,14,32,17.30
2009,05,17,14,33,17.30
2009,05,17,14,34,17.30
2009,05,17,14,35,17.30
2009,05,17,14,36,17.30
2009,05,17,14,37,17.30
2009,05,17,14,38,17.30
2009,05,17,14,39,17.30
2009,05,17,14,40,17.30
2009,05,17,14,41,17.30
2009,05,17,14,42,17.30
2009,05,17,14,43,17.30
2009,05,17,14,44,17.20
2009,05,17,14,45,17.20
2009,05,17,14,46,17.20
2009,05,17,14,47,17.30
2009,05,17,14,48,17.30
2009,05,17,14,49,17.30
2009,05,17,14,50,17.30
2009,05,17,14,51,17.30
2009,05,17,14,52,17.30
2009,05,17,14,53,17.30
2009,05,17,14,54,17.30
2009,05,17,14,55,17.30
2009,05,17,14,56,17.30
2009,05,17,14,57,17.30
2009,05,17,14,58,17.30
2009,05,17,14,59,17.30
2009,05,17,15,00,17.30
2009,05,17,15,01,17.30
2009,05,17,15,02,17.30
2009,05,17,15,03,17.30
2009,05,17,15,04,17.30
2009,05,17,15,05,17.30
2009,05,17,15,06,17.30
2009,05,17,15,07,17.30
2009,05,17,15,08,17.40
2009,05,17,15,09,17.40
2009,05,17,15,10,17.40
2009,05,17,15,11,17.40
2009,05,17,15,12,17.40
2009,05,17,15,13,17.30
2009,05,17,15,14,17.30
2009,05,17,15,15,17.30
2009,05,17,15,16,17.20
2009,05,17,15,17,17.20
2009,05,17,15,18,17.20
2009,05,17,15,19,17.20
2009,05,17,15,20,17.20
2009,05,17,15,21,17.20
2009,05,17,15,22,17.20
2009,05,17,15,23,17.30
2009,05,17,15,24,17.30
2009,05,17,15,25,17.30
2009,05,17,15,26,17.40
2009,05,17,15,27,17.50
2009,05,17,15,28,17.50
2009,05,17,15,29,17.60
2009,05,17,15,30,17.70
2009,05,17,15,31,17.80
2009,05,17,15,32,17.90
2009,05,17,15,33,17.90
2009,05,17,15,34,17.80
2009,05,17,15,35,17.70
2009,05,17,15,36,17.60
2009,05,17,15,37,17.50
2009,05,17,15,38,17.60
2009,05,17,15,39,17.60
2009,05,17,15,40,17.70
2009,05,17,15,41,17.70
2009,05,17,15,42,17.80
2009,05,17,15,43,17.80
2009,05,17,15,44,17.70
2009,05,17,15,45,17.70
2009,05,17,15,46,17.50
2009,05,17,15,47,17.40
2009,05,17,15,48,17.30
2009,05,17,15,49,17.40
2009,05,17,15,50,17.40
2009,05,17,15,51,17.40
2009,05,17,15,52,17.40
2009,05,17,15,53,17.50
2009,05,17,15,54,17.60
2009,05,17,15,55,17.70
2009,05,17,15,56,17.90
2009,05,17,15,57,18.00
2009,05,17,15,58,18.10
2009,05,17,15,59,18.20
2009,05,17,16,00,18.30
2009,05,17,16,01,18.30
2009,05,17,16,02,18.40
2009,05,17,16,03,18.40
2009,05,17,16,04,18.40
2009,05,17,16,05,18.40
2009,05,17,16,06,18.40
2009,05,17,16,07,18.20
2009,05,17,16,08,18.00
2009,05,17,16,09,17.80
2009,05,17,16,10,17.60
2009,05,17,16,11,17.30
2009,05,17,16,12,16.90
2009,05,17,16,13,16.50
2009,05,17,16,14,16.20
2009,05,17,16,15,16.10
2009,05,17,16,16,15.80
2009,05,17,16,17,15.50
2009,05,17,16,18,15.20
2009,05,17,16,19,14.80
2009,05,17,16,20,14.50
2009,05,17,16,21,14.10
2009,05,17,16,22,13.90
2009,05,17,16,23,13.80
2009,05,17,16,24,13.70
2009,05,17,16,25,13.70
2009,05,17,16,26,13.70
2009,05,17,16,27,13.70
2009,05,17,16,28,13.70
2009,05,17,16,29,13.80
2009,05,17,16,30,13.90
2009,05,17,16,31,14.00
2009,05,17,16,32,14.10
2009,05,17,16,33,14.20
2009,05,17,16,34,14.30
2009,05,17,16,35,14.40
2009,05,17,16,36,14.60
2009,05,17,16,37,14.70
2009,05,17,16,38,14.80
2009,05,17,16,39,14.80
2009,05,17,16,40,14.90
2009,05,17,16,41,14.90
2009,05,17,16,42,15.00
2009,05,17,16,43,15.10
2009,05,17,16,44,15.20
2009,05,17,16,45,15.20
2009,05,17,16,46,15.20
2009,05,17,16,47,15.20
2009,05,17,16,48,15.10
2009,05,17,16,49,15.00
2009,05,17,16,50,14.90
2009,05,17,16,51,14.80
2009,05,17,16,52,14.70
2009,05,17,16,53,14.50
2009,05,17,16,54,14.40
2009,05,17,16,55,14.20
2009,05,17,16,56,14.10
2009,05,17,16,57,14.00
2009,05,17,16,58,13.90
2009,05,17,16,59,13.70
2009,05,17,17,00,13.70
2009,05,17,17,01,13.70
2009,05,17,17,02,13.70
2009,05,17,17,03,13.60
2009,05,17,17,04,13.50
2009,05,17,17,05,13.50
2009,05,17,17,06,13.60
2009,05,17,17,07,13.60
2009,05,17,17,08,13.60
2009,05,17,17,09,13.80
2009,05,17,17,10,13.90
2009,05,17,17,11,14.10
2009,05,17,17,12,14.30
2009,05,17,17,13,14.60
2009,05,17,17,14,14.80
2009,05,17,17,15,14.90
2009,05,17,17,16,15.00
2009,05,17,17,17,15.00
2009,05,17,17,18,15.00
2009,05,17,17,19,15.00